datetime,"minimum soil temperature, 4 in depth"
2000-04-19,45.3
2000-04-20,45.93
2000-04-21,48.04
2000-04-22,50.94
2000-04-23,48.04
2000-04-24,45.18
2000-04-25,48.97
2000-04-26,48.17
2000-04-27,52.74
2000-04-28,48.56
2000-04-29,45.67
2000-04-30,49.22
2000-05-01,52.09
2000-05-02,50.68
2000-05-03,53.14
2000-05-04,52.61
2000-05-05,50.6
2000-05-06,51.08
2000-05-07,49.3
2000-05-08,49.1
2000-05-09,51.41
2000-05-10,49.07
2000-05-11,46.2
2000-05-12,44.76
2000-05-13,48.04
2000-05-14,47.54
2000-05-15,49.42
2000-05-16,48.8
2000-05-17,48.98
2000-05-18,50.01
2000-05-19,53.43
2000-05-20,55.2
2000-05-21,57.23
2000-05-22,59.34
2000-05-23,59.05
2000-05-24,59.16
2000-05-25,58.71
2000-05-26,58.25
2000-05-27,60.0
2000-05-28,59.45
2000-05-29,57.8
2000-05-30,57.27
2000-05-31,53.35
2000-06-01,54.86
2000-06-02,57.21
2000-06-03,58.72
2000-06-04,60.5
2000-06-05,61.71
2000-06-06,61.16
2000-06-07,61.65
2000-06-08,61.32
2000-06-09,57.2
2000-06-10,57.66
2000-06-11,56.35
2000-06-12,59.05
2000-06-13,56.65
2000-06-14,61.88
2000-06-15,63.57
2000-06-16,63.25
2000-06-17,62.86
2000-06-18,64.2
2000-06-19,63.63
2000-06-20,64.12
2000-06-21,65.5
2000-06-22,66.7
2000-06-23,66.45
2000-06-24,66.49
2000-06-25,66.8
2000-06-26,67.23
2000-06-27,67.51
2000-06-28,67.66
2000-06-29,68.32
2000-06-30,68.7
2000-07-01,67.48
2000-07-02,65.81
2000-07-03,64.33
2000-07-04,62.67
2000-07-05,63.57
2000-07-06,59.06
2000-07-07,59.83
2000-07-08,60.27
2000-07-09,60.66
2000-07-10,62.25
2000-07-11,63.55
2000-07-12,65.31
2000-07-13,65.46
2000-07-14,65.08
2000-07-15,65.79
2000-07-16,66.01
2000-07-17,66.45
2000-07-18,66.13
2000-07-19,66.39
2000-07-20,66.75
2000-07-21,67.63
2000-07-22,67.63
2000-07-23,66.34
2000-07-24,66.49
2000-07-25,66.75
2000-07-26,66.06
2000-07-27,65.89
2000-07-28,66.3
2000-07-29,67.23
2000-07-30,67.95
2000-07-31,68.96
2000-08-01,68.65
2000-08-02,67.65
2000-08-03,67.75
2000-08-04,68.02
2000-08-05,67.08
2000-08-06,66.76
2000-08-07,66.27
2000-08-08,67.52
2000-08-09,66.82
2000-08-10,64.86
2000-08-11,63.45
2000-08-12,63.42
2000-08-13,63.52
2000-08-14,62.69
2000-08-15,62.77
2000-08-16,62.24
2000-08-17,62.31
2000-08-18,61.28
2000-08-19,61.14
2000-08-20,60.29
2000-08-21,60.63
2000-08-22,61.25
2000-08-23,60.68
2000-08-24,60.31
2000-08-25,60.22
2000-08-26,60.63
2000-08-27,60.59
2000-08-28,60.38
2000-08-29,60.51
2000-08-30,60.41
2000-08-31,60.36
2000-09-01,59.93
2000-09-02,57.28
2000-09-03,56.42
2000-09-04,55.76
2000-09-05,54.13
2000-09-06,53.05
2000-09-07,53.17
2000-09-08,54.22
2000-09-09,53.0
2000-09-10,52.94
2000-09-11,54.67
2000-09-12,56.02
2000-09-13,59.23
2000-09-14,59.23
2000-09-15,59.17
2000-09-16,58.96
2000-09-17,58.57
2000-09-18,59.12
2000-09-19,60.01
2000-09-20,60.55
2000-09-21,59.71
2000-09-22,58.61
2000-09-23,56.18
2000-09-24,54.75
2000-09-25,54.53
2000-09-26,54.46
2000-09-27,54.44
2000-09-28,55.29
2000-09-29,55.44
2000-09-30,55.66
2000-10-01,56.19
2000-10-02,55.21
2000-10-03,54.02
2000-10-04,53.38
2000-10-05,52.89
2000-10-06,52.73
2000-10-07,52.62
2000-10-08,52.89
2000-10-09,53.27
2000-10-10,52.57
2000-10-11,51.72
2000-10-12,50.72
2000-10-13,51.27
2000-10-14,50.59
2000-10-15,50.21
2000-10-16,49.64
2000-10-17,49.33
2000-10-18,49.41
2000-10-19,49.79
2000-10-20,49.96
2000-10-21,48.92
2000-10-22,47.46
2000-10-23,46.24
2000-10-24,45.95
2000-10-25,47.22
2000-10-26,46.85
2000-10-27,46.2
2000-10-28,47.15
2000-10-29,46.24
2000-10-30,45.8
2000-10-31,45.11
2000-11-01,44.72
2000-11-02,45.32
2000-11-03,46.0
2000-11-04,45.47
2000-11-05,45.01
2000-11-06,44.84
2000-11-07,43.59
2000-11-08,44.15
2000-11-09,43.37
2000-11-10,41.86
2000-11-11,40.78
2000-11-12,39.73
2000-11-13,39.0
2000-11-14,39.0
2000-11-15,39.19
2000-11-16,39.21
2000-11-17,38.71
2000-11-18,38.36
2000-11-19,37.84
2000-11-20,37.51
2000-11-21,37.37
2000-11-22,37.17
2000-11-23,36.83
2000-11-24,36.75
2000-11-25,36.74
2000-11-26,36.77
2000-11-27,36.96
2000-11-28,37.56
2000-11-29,37.96
2000-11-30,38.81
2000-12-01,38.09
2000-12-02,37.48
2000-12-03,37.07
2000-12-04,36.75
2000-12-05,36.37
2000-12-06,36.08
2000-12-07,35.86
2000-12-08,35.75
2000-12-09,35.71
2000-12-10,35.75
2000-12-11,35.95
2000-12-12,35.95
2000-12-13,36.02
2000-12-14,36.07
2000-12-15,36.04
2000-12-16,36.07
2000-12-17,36.12
2000-12-18,35.69
2000-12-19,35.44
2000-12-20,35.39
2000-12-21,35.41
2000-12-22,35.55
2000-12-23,35.91
2000-12-24,35.82
2000-12-25,35.42
2000-12-26,35.08
2000-12-27,34.9
2000-12-28,34.67
2000-12-29,34.47
2000-12-30,34.3
2000-12-31,34.1
2001-01-01,33.98
2001-01-02,33.91
2001-01-03,33.87
2001-01-04,33.83
2001-01-05,33.81
2001-01-06,33.81
2001-01-07,33.8
2001-01-08,33.8
2001-01-09,33.8
2001-01-10,33.83
2001-01-11,33.83
2001-01-12,33.85
2001-01-13,33.88
2001-01-14,33.89
2001-01-15,33.92
2001-01-16,33.76
2001-01-17,33.5
2001-01-18,33.34
2001-01-19,33.32
2001-01-20,33.29
2001-01-21,33.28
2001-01-22,33.28
2001-01-23,33.32
2001-01-24,33.34
2001-01-25,33.38
2001-01-26,33.39
2001-01-27,33.44
2001-01-28,33.41
2001-01-29,33.38
2001-01-30,33.3
2001-01-31,33.14
2001-02-01,33.02
2001-02-02,33.02
2001-02-03,33.04
2001-02-04,33.04
2001-02-05,33.1
2001-02-06,33.15
2001-02-07,33.2
2001-02-08,33.26
2001-02-09,33.27
2001-02-10,33.27
2001-02-11,33.28
2001-02-12,33.28
2001-02-13,33.25
2001-02-14,33.16
2001-02-15,33.1
2001-02-16,33.09
2001-02-17,33.09
2001-02-18,33.12
2001-02-19,33.15
2001-02-20,33.18
2001-02-21,33.23
2001-02-22,33.32
2001-02-23,33.44
2001-02-24,33.5
2001-02-25,33.57
2001-02-26,33.77
2001-02-27,34.03
2001-02-28,34.22
2001-03-01,34.2
2001-03-02,34.18
2001-03-03,34.23
2001-03-04,34.19
2001-03-05,34.33
2001-03-06,34.92
2001-03-07,35.95
2001-03-08,37.52
2001-03-09,37.37
2001-03-10,37.02
2001-03-11,37.49
2001-03-12,37.86
2001-03-13,38.51
2001-03-14,38.82
2001-03-15,38.66
2001-03-16,38.63
2001-03-17,39.16
2001-03-18,40.36
2001-03-19,42.04
2001-03-20,42.74
2001-03-21,43.5
2001-03-22,43.76
2001-03-23,44.69
2001-03-24,45.17
2001-03-25,44.71
2001-03-26,43.66
2001-03-27,42.75
2001-03-28,43.71
2001-03-29,43.51
2001-03-30,43.98
2001-03-31,44.41
2001-04-01,44.8
2001-04-02,44.41
2001-04-03,42.78
2001-04-04,41.65
2001-04-05,41.41
2001-04-06,42.96
2001-04-07,41.62
2001-04-08,40.45
2001-04-09,40.18
2001-04-10,40.36
2001-04-11,41.26
2001-04-12,40.43
2001-04-13,40.98
2001-04-14,40.71
2001-04-15,41.56
2001-04-16,42.41
2001-04-17,42.97
2001-04-18,44.66
2001-04-19,43.21
2001-04-20,43.52
2001-04-21,42.69
2001-04-22,43.37
2001-04-23,45.27
2001-04-24,46.44
2001-04-25,48.29
2001-04-26,49.49
2001-04-27,50.3
2001-04-28,50.07
2001-04-29,48.17
2001-04-30,48.82
2001-05-01,48.69
2001-05-02,47.29
2001-05-03,46.81
2001-05-04,47.76
2001-05-05,49.25
2001-05-06,48.9
2001-05-07,49.55
2001-05-08,50.96
2001-05-09,51.59
2001-05-10,51.53
2001-05-11,51.92
2001-05-12,53.26
2001-05-13,52.41
2001-05-14,52.93
2001-05-15,52.45
2001-05-16,51.76
2001-05-17,51.2
2001-05-18,51.74
2001-05-19,53.03
2001-05-20,53.54
2001-05-21,54.0
2001-05-22,54.54
2001-05-23,56.07
2001-05-24,56.84
2001-05-25,57.17
2001-05-26,58.03
2001-05-27,57.8
2001-05-28,55.33
2001-05-29,54.08
2001-05-30,54.6
2001-05-31,55.18
2001-06-01,56.54
2001-06-02,54.64
2001-06-03,52.5
2001-06-04,51.12
2001-06-05,53.47
2001-06-06,52.43
2001-06-07,54.05
2001-06-08,55.39
2001-06-09,55.33
2001-06-10,55.03
2001-06-11,54.54
2001-06-12,53.84
2001-06-13,52.14
2001-06-14,53.15
2001-06-15,53.75
2001-06-16,54.06
2001-06-17,54.21
2001-06-18,52.8
2001-06-19,53.88
2001-06-20,54.88
2001-06-21,56.3
2001-06-22,56.3
2001-06-23,56.61
2001-06-24,55.84
2001-06-25,54.01
2001-06-26,54.78
2001-06-27,55.31
2001-06-28,53.9
2001-06-29,54.37
2001-06-30,56.8
2001-07-01,56.64
2001-07-02,56.86
2001-07-03,58.15
2001-07-04,58.55
2001-07-05,61.02
2001-07-06,59.67
2001-07-07,59.12
2001-07-08,58.26
2001-07-09,58.95
2001-07-10,60.13
2001-07-11,59.03
2001-07-12,57.13
2001-07-13,57.57
2001-07-14,58.39
2001-07-15,58.6
2001-07-16,59.65
2001-07-17,57.44
2001-07-18,57.03
2001-07-19,57.0
2001-07-20,57.97
2001-07-21,58.22
2001-07-22,56.61
2001-07-23,57.92
2001-07-24,58.8
2001-07-25,59.47
2001-07-26,58.95
2001-07-27,58.8
2001-07-28,58.51
2001-07-29,58.06
2001-07-30,58.93
2001-07-31,56.49
2001-08-01,56.98
2001-08-02,58.28
2001-08-03,58.09
2001-08-04,59.7
2001-08-05,58.49
2001-08-06,59.01
2001-08-07,59.7
2001-08-08,61.04
2001-08-09,61.81
2001-08-10,61.09
2001-08-11,60.84
2001-08-12,60.33
2001-08-13,59.6
2001-08-14,59.14
2001-08-15,59.99
2001-08-16,60.8
2001-08-17,60.53
2001-08-18,59.92
2001-08-19,58.5
2001-08-20,60.48
2001-08-21,65.2
2001-08-22,66.45
2001-08-23,66.06
2001-08-24,63.39
2001-08-25,64.72
2001-08-26,64.38
2001-08-27,64.34
2001-08-28,63.44
2001-08-29,63.51
2001-08-30,64.14
2001-08-31,63.62
2001-09-01,63.41
2001-09-02,63.0
2001-09-03,62.73
2001-09-04,62.07
2001-09-05,61.48
2001-09-06,58.83
2001-09-07,58.2
2001-09-08,58.31
2001-09-09,57.52
2001-09-10,57.87
2001-09-11,57.57
2001-09-12,58.03
2001-09-13,59.23
2001-09-14,58.2
2001-09-15,58.97
2001-09-16,58.41
2001-09-17,57.38
2001-09-18,57.03
2001-09-19,56.13
2001-09-20,55.32
2001-09-21,54.77
2001-09-22,54.44
2001-09-23,55.04
2001-09-24,55.37
2001-09-25,56.7
2001-09-26,55.16
2001-09-27,54.65
2001-09-28,53.55
2001-09-29,52.25
2001-09-30,52.06
2001-10-01,52.44
2001-10-02,52.89
2001-10-03,52.5
2001-10-04,52.4
2001-10-05,52.46
2001-10-06,52.06
2001-10-07,51.16
2001-10-08,51.55
2001-10-09,49.39
2001-10-10,48.16
2001-10-11,50.23
2001-10-12,48.63
2001-10-13,48.44
2001-10-14,48.43
2001-10-15,48.4
2001-10-16,49.48
2001-10-17,50.08
2001-10-18,47.73
2001-10-19,46.78
2001-10-20,47.25
2001-10-21,47.01
2001-10-22,48.17
2001-10-23,48.75
2001-10-24,45.79
2001-10-25,44.47
2001-10-26,44.13
2001-10-27,44.75
2001-10-28,45.94
2001-10-29,46.98
2001-10-30,47.92
2001-10-31,47.44
2001-11-01,
2001-11-02,
2001-11-03,
2001-11-04,
2001-11-05,
2001-11-06,
2001-11-07,
2001-11-08,
2001-11-09,
2001-11-10,
2001-11-11,
2001-11-12,
2001-11-13,
2001-11-14,
2001-11-15,
2001-11-16,
2001-11-17,
2001-11-18,
2001-11-19,
2001-11-20,
2001-11-21,
2001-11-22,
2001-11-23,
2001-11-24,
2001-11-25,
2001-11-26,
2001-11-27,
2001-11-28,
2001-11-29,
2001-11-30,
2001-12-01,
2001-12-02,
2001-12-03,
2001-12-04,
2001-12-05,
2001-12-06,
2001-12-07,
2001-12-08,
2001-12-09,
2001-12-10,
2001-12-11,
2001-12-12,37.71
2001-12-13,37.67
2001-12-14,37.54
2001-12-15,37.48
2001-12-16,37.46
2001-12-17,37.29
2001-12-18,37.26
2001-12-19,37.21
2001-12-20,37.13
2001-12-21,37.12
2001-12-22,37.1
2001-12-23,37.1
2001-12-24,37.03
2001-12-25,36.96
2001-12-26,36.86
2001-12-27,36.83
2001-12-28,36.72
2001-12-29,36.52
2001-12-30,36.25
2001-12-31,36.07
2002-01-01,35.75
2002-01-02,35.0
2002-01-03,35.04
2002-01-04,35.29
2002-01-05,35.84
2002-01-06,35.61
2002-01-07,37.35
2002-01-08,37.81
2002-01-09,38.51
2002-01-10,39.01
2002-01-11,39.19
2002-01-12,39.15
2002-01-13,39.24
2002-01-14,38.22
2002-01-15,37.78
2002-01-16,38.15
2002-01-17,38.8
2002-01-18,39.35
2002-01-19,39.51
2002-01-20,39.59
2002-01-21,39.72
2002-01-22,39.82
2002-01-23,39.82
2002-01-24,39.7
2002-01-25,39.6
2002-01-26,39.45
2002-01-27,39.24
2002-01-28,39.15
2002-01-29,39.09
2002-01-30,38.9
2002-01-31,38.62
2002-02-01,38.23
2002-02-02,37.8
2002-02-03,37.47
2002-02-04,37.23
2002-02-05,37.02
2002-02-06,36.88
2002-02-07,36.94
2002-02-08,37.19
2002-02-09,37.46
2002-02-10,38.12
2002-02-11,38.81
2002-02-12,39.36
2002-02-13,39.81
2002-02-14,39.88
2002-02-15,37.38
2002-02-16,36.12
2002-02-17,35.81
2002-02-18,35.46
2002-02-19,35.44
2002-02-20,35.89
2002-02-21,39.1
2002-02-22,39.39
2002-02-23,39.95
2002-02-24,39.33
2002-02-25,39.02
2002-02-26,38.78
2002-02-27,39.13
2002-02-28,39.14
2002-03-01,37.87
2002-03-02,37.27
2002-03-03,37.09
2002-03-04,37.31
2002-03-05,37.63
2002-03-06,37.57
2002-03-07,37.67
2002-03-08,36.89
2002-03-09,36.41
2002-03-10,36.25
2002-03-11,37.28
2002-03-12,39.18
2002-03-13,38.19
2002-03-14,37.37
2002-03-15,37.07
2002-03-16,36.53
2002-03-17,36.2
2002-03-18,35.81
2002-03-19,35.76
2002-03-20,37.32
2002-03-21,38.54
2002-03-22,39.52
2002-03-23,39.45
2002-03-24,39.78
2002-03-25,39.52
2002-03-26,39.48
2002-03-27,39.96
2002-03-28,40.36
2002-03-29,41.36
2002-03-30,41.86
2002-03-31,42.14
2002-04-01,42.76
2002-04-02,43.78
2002-04-03,45.01
2002-04-04,45.95
2002-04-05,47.3
2002-04-06,46.72
2002-04-07,45.62
2002-04-08,45.64
2002-04-09,47.35
2002-04-10,46.35
2002-04-11,47.5
2002-04-12,46.66
2002-04-13,47.76
2002-04-14,49.36
2002-04-15,47.27
2002-04-16,45.05
2002-04-17,43.61
2002-04-18,42.74
2002-04-19,42.83
2002-04-20,43.44
2002-04-21,44.31
2002-04-22,45.13
2002-04-23,46.19
2002-04-24,45.92
2002-04-25,47.01
2002-04-26,47.47
2002-04-27,46.54
2002-04-28,45.85
2002-04-29,46.24
2002-04-30,43.97
2002-05-01,43.53
2002-05-02,45.43
2002-05-03,44.86
2002-05-04,45.9
2002-05-05,46.88
2002-05-06,46.89
2002-05-07,45.7
2002-05-08,44.79
2002-05-09,46.32
2002-05-10,46.97
2002-05-11,45.09
2002-05-12,47.0
2002-05-13,49.72
2002-05-14,47.8
2002-05-15,49.55
2002-05-16,48.13
2002-05-17,50.83
2002-05-18,52.19
2002-05-19,50.7
2002-05-20,47.63
2002-05-21,47.92
2002-05-22,47.12
2002-05-23,46.97
2002-05-24,49.45
2002-05-25,51.8
2002-05-26,52.34
2002-05-27,53.51
2002-05-28,52.81
2002-05-29,54.94
2002-05-30,55.2
2002-05-31,54.44
2002-06-01,56.64
2002-06-02,53.26
2002-06-03,53.69
2002-06-04,54.54
2002-06-05,55.59
2002-06-06,55.4
2002-06-07,54.39
2002-06-08,51.47
2002-06-09,50.07
2002-06-10,49.91
2002-06-11,51.46
2002-06-12,54.21
2002-06-13,54.63
2002-06-14,55.84
2002-06-15,56.18
2002-06-16,56.3
2002-06-17,55.91
2002-06-18,56.54
2002-06-19,54.15
2002-06-20,65.93
2002-06-21,67.35
2002-06-22,68.47
2002-06-23,68.39
2002-06-24,65.54
2002-06-25,65.35
2002-06-26,65.94
2002-06-27,66.71
2002-06-28,65.97
2002-06-29,64.52
2002-06-30,62.67
2002-07-01,62.04
2002-07-02,61.89
2002-07-03,62.52
2002-07-04,61.16
2002-07-05,60.52
2002-07-06,61.68
2002-07-07,62.28
2002-07-08,60.32
2002-07-09,60.45
2002-07-10,62.01
2002-07-11,63.52
2002-07-12,65.12
2002-07-13,65.08
2002-07-14,64.75
2002-07-15,63.77
2002-07-16,62.99
2002-07-17,61.74
2002-07-18,61.91
2002-07-19,63.01
2002-07-20,61.87
2002-07-21,62.25
2002-07-22,63.85
2002-07-23,60.94
2002-07-24,59.98
2002-07-25,60.53
2002-07-26,59.94
2002-07-27,60.38
2002-07-28,59.84
2002-07-29,61.04
2002-07-30,61.18
2002-07-31,60.51
2002-08-01,60.0
2002-08-02,59.29
2002-08-03,58.52
2002-08-04,58.46
2002-08-05,54.85
2002-08-06,54.96
2002-08-07,55.03
2002-08-08,55.05
2002-08-09,57.45
2002-08-10,57.41
2002-08-11,58.29
2002-08-12,58.56
2002-08-13,60.47
2002-08-14,60.05
2002-08-15,59.75
2002-08-16,59.58
2002-08-17,61.99
2002-08-18,67.26
2002-08-19,68.09
2002-08-20,66.5
2002-08-21,65.44
2002-08-22,65.61
2002-08-23,63.04
2002-08-24,62.6
2002-08-25,63.01
2002-08-26,61.67
2002-08-27,61.95
2002-08-28,63.13
2002-08-29,63.03
2002-08-30,63.24
2002-08-31,60.5
2002-09-01,60.03
2002-09-02,60.73
2002-09-03,60.9
2002-09-04,59.67
2002-09-05,57.46
2002-09-06,55.55
2002-09-07,55.25
2002-09-08,53.76
2002-09-09,53.72
2002-09-10,54.16
2002-09-11,54.96
2002-09-12,55.61
2002-09-13,56.18
2002-09-14,55.74
2002-09-15,56.52
2002-09-16,55.7
2002-09-17,56.89
2002-09-18,54.88
2002-09-19,54.34
2002-09-20,54.46
2002-09-21,55.05
2002-09-22,54.31
2002-09-23,54.07
2002-09-24,54.26
2002-09-25,54.59
2002-09-26,52.31
2002-09-27,52.92
2002-09-28,52.47
2002-09-29,51.96
2002-09-30,49.87
2002-10-01,48.04
2002-10-02,48.0
2002-10-03,48.08
2002-10-04,48.8
2002-10-05,49.37
2002-10-06,50.28
2002-10-07,49.56
2002-10-08,49.32
2002-10-09,48.14
2002-10-10,47.65
2002-10-11,45.95
2002-10-12,44.43
2002-10-13,44.2
2002-10-14,44.24
2002-10-15,45.44
2002-10-16,45.2
2002-10-17,45.07
2002-10-18,45.32
2002-10-19,45.22
2002-10-20,45.77
2002-10-21,46.28
2002-10-22,47.21
2002-10-23,44.61
2002-10-24,43.86
2002-10-25,43.45
2002-10-26,42.83
2002-10-27,42.27
2002-10-28,42.47
2002-10-29,41.95
2002-10-30,41.39
2002-10-31,39.41
2002-11-01,38.05
2002-11-02,37.09
2002-11-03,36.73
2002-11-04,36.68
2002-11-05,36.8
2002-11-06,37.44
2002-11-07,40.08
2002-11-08,41.46
2002-11-09,41.46
2002-11-10,40.44
2002-11-11,41.33
2002-11-12,42.42
2002-11-13,41.72
2002-11-14,40.51
2002-11-15,39.59
2002-11-16,39.07
2002-11-17,40.34
2002-11-18,39.15
2002-11-19,39.72
2002-11-20,39.79
2002-11-21,39.87
2002-11-22,39.3
2002-11-23,38.97
2002-11-24,39.53
2002-11-25,38.69
2002-11-26,37.46
2002-11-27,36.83
2002-11-28,36.49
2002-11-29,36.24
2002-11-30,35.98
2002-12-01,35.78
2002-12-02,35.52
2002-12-03,35.26
2002-12-04,35.17
2002-12-05,35.11
2002-12-06,35.08
2002-12-07,34.94
2002-12-08,34.7
2002-12-09,34.7
2002-12-10,34.7
2002-12-11,34.77
2002-12-12,34.84
2002-12-13,34.92
2002-12-14,35.42
2002-12-15,37.06
2002-12-16,37.43
2002-12-17,36.67
2002-12-18,36.29
2002-12-19,36.11
2002-12-20,36.02
2002-12-21,35.97
2002-12-22,35.89
2002-12-23,35.75
2002-12-24,35.54
2002-12-25,35.41
2002-12-26,35.34
2002-12-27,34.97
2002-12-28,35.09
2002-12-29,35.61
2002-12-30,35.73
2002-12-31,35.89
2003-01-01,35.76
2003-01-02,35.7
2003-01-03,36.31
2003-01-04,37.25
2003-01-05,37.51
2003-01-06,36.42
2003-01-07,35.94
2003-01-08,35.61
2003-01-09,35.49
2003-01-10,35.3
2003-01-11,35.24
2003-01-12,35.22
2003-01-13,35.66
2003-01-14,37.85
2003-01-15,37.76
2003-01-16,37.37
2003-01-17,37.48
2003-01-18,36.95
2003-01-19,36.54
2003-01-20,36.31
2003-01-21,36.2
2003-01-22,36.99
2003-01-23,37.84
2003-01-24,37.57
2003-01-25,38.67
2003-01-26,40.45
2003-01-27,41.36
2003-01-28,39.55
2003-01-29,38.85
2003-01-30,39.98
2003-01-31,41.07
2003-02-01,40.94
2003-02-02,39.5
2003-02-03,38.42
2003-02-04,37.7
2003-02-05,35.35
2003-02-06,35.69
2003-02-07,37.58
2003-02-08,38.18
2003-02-09,39.17
2003-02-10,39.81
2003-02-11,40.03
2003-02-12,40.25
2003-02-13,40.62
2003-02-14,41.95
2003-02-15,42.66
2003-02-16,41.6
2003-02-17,41.14
2003-02-18,41.21
2003-02-19,41.83
2003-02-20,41.24
2003-02-21,41.58
2003-02-22,42.66
2003-02-23,42.03
2003-02-24,40.89
2003-02-25,40.39
2003-02-26,40.56
2003-02-27,40.62
2003-02-28,40.47
2003-03-01,40.26
2003-03-02,40.51
2003-03-03,41.96
2003-03-04,41.71
2003-03-05,41.63
2003-03-06,42.11
2003-03-07,42.08
2003-03-08,42.66
2003-03-09,43.12
2003-03-10,43.99
2003-03-11,44.26
2003-03-12,45.98
2003-03-13,46.44
2003-03-14,44.57
2003-03-15,44.76
2003-03-16,44.27
2003-03-17,43.44
2003-03-18,41.71
2003-03-19,42.02
2003-03-20,41.82
2003-03-21,43.01
2003-03-22,44.86
2003-03-23,42.48
2003-03-24,41.62
2003-03-25,43.06
2003-03-26,43.42
2003-03-27,41.77
2003-03-28,42.14
2003-03-29,42.46
2003-03-30,43.26
2003-03-31,45.66
2003-04-01,44.9
2003-04-02,43.78
2003-04-03,41.71
2003-04-04,41.14
2003-04-05,40.49
2003-04-06,40.83
2003-04-07,41.77
2003-04-08,44.41
2003-04-09,44.14
2003-04-10,44.05
2003-04-11,44.59
2003-04-12,45.62
2003-04-13,43.62
2003-04-14,42.87
2003-04-15,42.22
2003-04-16,42.15
2003-04-17,42.04
2003-04-18,42.1
2003-04-19,42.31
2003-04-20,44.15
2003-04-21,44.96
2003-04-22,44.15
2003-04-23,44.12
2003-04-24,43.04
2003-04-25,41.35
2003-04-26,41.29
2003-04-27,41.78
2003-04-28,43.26
2003-04-29,43.44
2003-04-30,41.99
2003-05-01,43.52
2003-05-02,46.15
2003-05-03,46.47
2003-05-04,45.68
2003-05-05,44.83
2003-05-06,45.77
2003-05-07,46.63
2003-05-08,46.57
2003-05-09,44.84
2003-05-10,45.68
2003-05-11,45.68
2003-05-12,47.07
2003-05-13,48.3
2003-05-14,50.47
2003-05-15,50.83
2003-05-16,48.88
2003-05-17,48.93
2003-05-18,46.92
2003-05-19,46.83
2003-05-20,48.37
2003-05-21,50.21
2003-05-22,51.87
2003-05-23,52.78
2003-05-24,54.38
2003-05-25,54.41
2003-05-26,53.83
2003-05-27,53.57
2003-05-28,54.64
2003-05-29,56.08
2003-05-30,57.1
2003-05-31,56.81
2003-06-01,54.64
2003-06-02,54.45
2003-06-03,55.46
2003-06-04,56.06
2003-06-05,55.71
2003-06-06,55.83
2003-06-07,56.7
2003-06-08,56.82
2003-06-09,55.7
2003-06-10,54.53
2003-06-11,53.92
2003-06-12,54.15
2003-06-13,56.39
2003-06-14,63.64
2003-06-15,65.22
2003-06-16,65.99
2003-06-17,67.44
2003-06-18,68.98
2003-06-19,66.51
2003-06-20,63.9
2003-06-21,62.04
2003-06-22,60.04
2003-06-23,58.96
2003-06-24,58.39
2003-06-25,59.06
2003-06-26,59.56
2003-06-27,60.44
2003-06-28,60.9
2003-06-29,61.52
2003-06-30,60.06
2003-07-01,59.14
2003-07-02,58.45
2003-07-03,58.06
2003-07-04,58.05
2003-07-05,58.36
2003-07-06,58.2
2003-07-07,58.44
2003-07-08,57.66
2003-07-09,57.01
2003-07-10,57.57
2003-07-11,58.12
2003-07-12,58.38
2003-07-13,57.85
2003-07-14,57.15
2003-07-15,57.8
2003-07-16,58.27
2003-07-17,58.02
2003-07-18,58.27
2003-07-19,58.85
2003-07-20,59.5
2003-07-21,59.79
2003-07-22,60.86
2003-07-23,61.87
2003-07-24,62.52
2003-07-25,61.9
2003-07-26,60.53
2003-07-27,59.63
2003-07-28,59.67
2003-07-29,59.64
2003-07-30,60.06
2003-07-31,60.24
2003-08-01,60.59
2003-08-02,61.08
2003-08-03,60.64
2003-08-04,58.55
2003-08-05,58.09
2003-08-06,56.38
2003-08-07,55.86
2003-08-08,54.79
2003-08-09,54.85
2003-08-10,54.69
2003-08-11,54.54
2003-08-12,53.85
2003-08-13,53.6
2003-08-14,53.17
2003-08-15,54.79
2003-08-16,53.86
2003-08-17,53.8
2003-08-18,54.75
2003-08-19,56.67
2003-08-20,56.48
2003-08-21,56.53
2003-08-22,57.01
2003-08-23,55.97
2003-08-24,55.1
2003-08-25,54.81
2003-08-26,55.02
2003-08-27,56.51
2003-08-28,66.25
2003-08-29,66.16
2003-08-30,65.97
2003-08-31,63.16
2003-09-01,62.37
2003-09-02,61.48
2003-09-03,61.07
2003-09-04,60.69
2003-09-05,61.48
2003-09-06,59.68
2003-09-07,58.72
2003-09-08,57.23
2003-09-09,57.15
2003-09-10,55.82
2003-09-11,55.85
2003-09-12,56.41
2003-09-13,55.05
2003-09-14,53.88
2003-09-15,54.2
2003-09-16,54.37
2003-09-17,52.17
2003-09-18,50.91
2003-09-19,51.15
2003-09-20,51.36
2003-09-21,51.77
2003-09-22,52.39
2003-09-23,52.19
2003-09-24,52.23
2003-09-25,52.06
2003-09-26,51.69
2003-09-27,53.33
2003-09-28,53.65
2003-09-29,53.22
2003-09-30,51.97
2003-10-01,52.45
2003-10-02,52.33
2003-10-03,52.89
2003-10-04,52.71
2003-10-05,52.69
2003-10-06,52.2
2003-10-07,52.88
2003-10-08,51.39
2003-10-09,51.33
2003-10-10,49.03
2003-10-11,47.2
2003-10-12,48.14
2003-10-13,46.27
2003-10-14,46.56
2003-10-15,46.31
2003-10-16,46.62
2003-10-17,46.8
2003-10-18,47.2
2003-10-19,49.04
2003-10-20,49.35
2003-10-21,48.61
2003-10-22,49.32
2003-10-23,49.22
2003-10-24,46.52
2003-10-25,46.77
2003-10-26,46.21
2003-10-27,45.99
2003-10-28,46.82
2003-10-29,47.9
2003-10-30,45.62
2003-10-31,43.77
2003-11-01,42.16
2003-11-02,41.67
2003-11-03,42.43
2003-11-04,43.01
2003-11-05,43.28
2003-11-06,42.73
2003-11-07,42.66
2003-11-08,43.82
2003-11-09,44.28
2003-11-10,43.8
2003-11-11,43.71
2003-11-12,42.69
2003-11-13,41.8
2003-11-14,41.53
2003-11-15,42.04
2003-11-16,42.8
2003-11-17,43.31
2003-11-18,42.08
2003-11-19,41.69
2003-11-20,41.69
2003-11-21,40.73
2003-11-22,39.82
2003-11-23,38.89
2003-11-24,38.4
2003-11-25,38.04
2003-11-26,37.86
2003-11-27,37.66
2003-11-28,37.56
2003-11-29,37.03
2003-11-30,37.17
2003-12-01,39.19
2003-12-02,39.76
2003-12-03,40.13
2003-12-04,39.69
2003-12-05,40.06
2003-12-06,41.79
2003-12-07,41.4
2003-12-08,40.15
2003-12-09,39.79
2003-12-10,39.8
2003-12-11,40.5
2003-12-12,38.85
2003-12-13,38.71
2003-12-14,40.25
2003-12-15,39.78
2003-12-16,39.29
2003-12-17,39.16
2003-12-18,38.77
2003-12-19,38.5
2003-12-20,38.48
2003-12-21,38.83
2003-12-22,39.03
2003-12-23,39.23
2003-12-24,40.18
2003-12-25,39.13
2003-12-26,38.04
2003-12-27,37.51
2003-12-28,37.57
2003-12-29,37.56
2003-12-30,37.62
2003-12-31,37.89
2004-01-01,37.98
2004-01-02,38.0
2004-01-03,38.24
2004-01-04,38.42
2004-01-05,38.59
2004-01-06,38.77
2004-01-07,38.82
2004-01-08,36.38
2004-01-09,36.18
2004-01-10,36.71
2004-01-11,37.78
2004-01-12,37.73
2004-01-13,37.75
2004-01-14,37.98
2004-01-15,37.81
2004-01-16,37.74
2004-01-17,37.8
2004-01-18,37.65
2004-01-19,37.5
2004-01-20,37.53
2004-01-21,37.65
2004-01-22,37.49
2004-01-23,37.33
2004-01-24,36.96
2004-01-25,37.01
2004-01-26,37.12
2004-01-27,37.12
2004-01-28,37.05
2004-01-29,36.84
2004-01-30,36.91
2004-01-31,37.01
2004-02-01,37.07
2004-02-02,37.43
2004-02-03,37.74
2004-02-04,37.86
2004-02-05,37.69
2004-02-06,37.55
2004-02-07,37.72
2004-02-08,37.38
2004-02-09,37.24
2004-02-10,37.07
2004-02-11,36.95
2004-02-12,36.88
2004-02-13,36.85
2004-02-14,36.81
2004-02-15,36.9
2004-02-16,37.64
2004-02-17,37.57
2004-02-18,38.45
2004-02-19,38.71
2004-02-20,38.56
2004-02-21,38.73
2004-02-22,39.31
2004-02-23,39.62
2004-02-24,39.89
2004-02-25,40.2
2004-02-26,38.38
2004-02-27,39.15
2004-02-28,39.94
2004-02-29,40.88
2004-03-01,41.44
2004-03-02,41.13
2004-03-03,41.39
2004-03-04,40.95
2004-03-05,41.87
2004-03-06,41.76
2004-03-07,41.93
2004-03-08,42.11
2004-03-09,44.48
2004-03-10,47.41
2004-03-11,47.96
2004-03-12,48.13
2004-03-13,49.0
2004-03-14,49.7
2004-03-15,50.86
2004-03-16,50.75
2004-03-17,52.13